EW7328 Weather Reports


Display with metric or nautical units.
time (UTC)temp
F
wind
direction
speed
MPH
gust
MPH
rain 1hr
in
rain 24hr
in
rain mn
in
humidity
%
barometer
mb
20260507033729 64 241 0.0 4.0 0.00 0.00 0.00 75 1016.1
20260507033225 64 241 0.0 4.0 0.00 0.00 0.00 75 1016.1
20260507032725 64 240 1.0 2.0 0.00 0.00 0.00 74 1016.1
20260507032226 65 240 0.0 1.0 0.00 0.00 0.00 74 1016.1
20260507031726 65 240 0.0 2.0 0.00 0.00 0.00 74 1015.9
20260507031224 65 240 2.0 2.0 0.00 0.00 0.00 74 1015.9
20260507030723 65 240 2.0 2.0 0.00 0.00 0.00 74 1015.8
20260507030222 65 240 1.0 4.0 0.00 0.00 0.00 73 1015.8
20260507025723 65 240 1.0 5.0 0.00 0.00 0.00 73 1015.8
20260507025229 65 283 3.0 4.0 0.00 0.00 0.00 72 1015.6
20260507025224 65 240 3.0 5.0 0.00 0.00 0.00 72 1015.8
20260507024221 65 221 2.0 5.0 0.00 0.00 0.00 71 1015.6
20260507023721 65 281 3.0 5.0 0.00 0.00 0.00 70 1015.6
20260507023222 66 254 0.0 7.0 0.00 0.00 0.00 69 1015.5
20260507022720 66 228 2.0 7.0 0.00 0.00 0.00 68 1015.5
20260507022221 66 223 4.0 6.0 0.00 0.00 0.00 68 1015.4
20260507021722 66 283 4.0 6.0 0.00 0.00 0.00 69 1015.4
20260507021221 67 269 4.0 6.0 0.00 0.00 0.00 69 1015.4
20260507020722 67 241 3.0 6.0 0.00 0.00 0.00 69 1015.4
20260507020221 67 223 3.0 6.0 0.00 0.00 0.00 68 1015.3
20260507015722 67 255 3.0 11.0 0.00 0.00 0.00 68 1015.3
20260507015220 68 217 3.0 11.0 0.00 0.00 0.00 67 1015.3
20260507014721 68 241 2.0 7.0 0.00 0.00 0.00 67 1015.3
20260507014221 68 255 3.0 7.0 0.00 0.00 0.00 67 1015.2
20260507013721 68 245 3.0 6.0 0.00 0.00 0.00 66 1015.3
20260507013219 68 257 3.0 9.0 0.00 0.00 0.00 65 1015.2
20260507012720 69 216 6.0 9.0 0.00 0.00 0.00 65 1015.2
20260507012223 69 244 4.0 7.0 0.00 0.00 0.00 64 1015.0
20260507012217 69 220 4.0 7.0 0.00 0.00 0.00 65 1015.1
20260507011220 69 275 2.0 9.0 0.00 0.00 0.00 64 1015.0
20260507010719 69 265 6.0 9.0 0.00 0.00 0.00 63 1015.0
20260507010217 69 200 3.0 7.0 0.00 0.00 0.00 64 1015.0
20260507005719 70 290 5.0 9.0 0.00 0.00 0.00 64 1015.0
20260507005220 70 293 4.0 9.0 0.00 0.00 0.00 62 1015.0
20260507004719 70 224 2.0 10.0 0.00 0.00 0.00 62 1015.0
20260507004218 70 209 3.0 10.0 0.00 0.00 0.00 62 1015.0
20260507003724 71 258 4.0 10.0 0.00 0.00 0.00 61 1015.0
20260507003718 70 264 6.0 10.0 0.00 0.00 0.00 62 1015.0
20260507002718 71 265 6.0 10.0 0.00 0.00 0.00 61 1015.0
20260507002218 71 237 6.0 9.0 0.00 0.00 0.00 61 1014.9
20260507001716 71 243 5.0 9.0 0.00 0.00 0.00 59 1014.9
20260507001217 72 248 4.0 9.0 0.00 0.00 0.00 59 1014.9
20260507000717 72 254 3.0 7.0 0.00 0.00 0.00 58 1014.9
20260507000222 71 155 3.0 7.0 0.00 0.00 0.00 59 1014.9
20260506235716 71 228 3.0 7.0 0.00 0.00 0.00 59 1014.9
20260506235217 71 261 3.0 11.0 0.00 0.00 0.00 60 1014.9
20260506234715 72 213 5.0 11.0 0.00 0.00 0.00 59 1014.9
20260506234216 72 196 4.0 9.0 0.00 0.00 0.00 59 1014.8
20260506233722 73 289 6.0 10.0 0.00 0.00 0.00 57 1014.9
20260506233716 72 248 4.0 10.0 0.00 0.00 0.00 58 1014.8
20260506232716 73 286 6.0 10.0 0.00 0.00 0.00 56 1014.8
20260506232215 73 248 3.0 9.0 0.00 0.00 0.00 57 1014.9
20260506231714 73 305 3.0 10.0 0.00 0.00 0.00 57 1015.0
20260506231214 73 288 6.0 10.0 0.00 0.00 0.00 55 1014.9
20260506230714 74 159 4.0 10.0 0.00 0.00 0.00 54 1014.9
20260506230219 74 265 2.0 11.0 0.00 0.00 0.00 53 1014.9
20260506225720 74 266 4.0 11.0 0.00 0.00 0.00 51 1015.0
20260506225715 74 283 6.0 11.0 0.00 0.00 0.00 52 1015.1
20260506224714 74 245 6.0 11.0 0.00 0.00 0.00 50 1015.1
20260506224214 74 193 2.0 9.0 0.00 0.00 0.00 49 1015.2
20260506223713 74 220 2.0 14.0 0.00 0.00 0.00 49 1015.2
20260506223213 74 281 6.0 14.0 0.00 0.00 0.00 48 1015.3
20260506222713 75 237 4.0 12.0 0.00 0.00 0.00 48 1015.3
20260506222218 75 223 3.0 7.0 0.00 0.00 0.00 48 1015.3
20260506222212 75 292 5.0 12.0 0.00 0.00 0.00 48 1015.2
20260506221834 74 243 3.0 11.0 0.00 0.00 0.00 49 1015.4
20260506220712 74 296 6.0 11.0 0.00 0.00 0.00 48 1015.5
20260506220212 74 281 4.0 11.0 0.00 0.00 0.00 49 1015.5
20260506215713 74 234 5.0 11.0 0.00 0.00 0.00 49 1015.6
20260506215212 74 310 3.0 10.0 0.00 0.00 0.00 50 1015.6
20260506214828 74 224 4.0 9.0 0.00 0.00 0.00 49 1015.7
20260506214717 74 244 5.0 9.0 0.00 0.00 0.00 50 1015.8
20260506214713 74 251 4.0 10.0 0.00 0.00 0.00 50 1015.7
20260506213213 74 276 3.0 7.0 0.00 0.00 0.00 50 1015.9
20260506212712 74 244 4.0 11.0 0.00 0.00 0.00 51 1015.9
20260506212215 74 299 4.0 9.0 0.00 0.00 0.00 50 1016.0
20260506212211 74 228 3.0 11.0 0.00 0.00 0.00 50 1016.0
20260506211211 74 238 2.0 6.0 0.00 0.00 0.00 52 1016.0
20260506210711 73 240 2.0 10.0 0.00 0.00 0.00 54 1016.1
20260506210216 73 305 4.0 9.0 0.00 0.00 0.00 54 1016.2
20260506210211 73 272 5.0 10.0 0.00 0.00 0.00 53 1016.2
20260506205211 73 290 4.0 11.0 0.00 0.00 0.00 54 1016.2
20260506204710 73 296 6.0 11.0 0.00 0.00 0.00 54 1016.3
20260506204210 72 258 2.0 9.0 0.00 0.00 0.00 56 1016.3
20260506203710 72 261 5.0 9.0 0.00 0.00 0.00 55 1016.3
20260506203210 73 302 4.0 7.0 0.00 0.00 0.00 55 1016.3
20260506202709 73 230 3.0 10.0 0.00 0.00 0.00 56 1016.4
20260506202208 72 223 4.0 13.0 0.00 0.00 0.00 57 1016.4
20260506201709 72 195 3.0 13.0 0.00 0.00 0.00 59 1016.5
20260506201209 72 274 4.0 10.0 0.00 0.00 0.00 57 1016.6
20260506200707 72 223 4.0 10.0 0.00 0.00 0.00 57 1016.7
20260506200209 72 219 6.0 10.0 0.00 0.00 0.00 57 1016.7
20260506195709 72 224 5.0 11.0 0.00 0.00 0.00 57 1016.8
20260506195208 72 276 3.0 11.0 0.00 0.00 0.00 58 1016.8
20260506194708 72 213 3.0 7.0 0.00 0.00 0.00 59 1016.8
20260506194213 73 216 6.0 10.0 0.00 0.00 0.00 57 1016.9
20260506194208 72 228 4.0 10.0 0.00 0.00 0.00 58 1016.9
20260506193208 73 178 2.0 5.0 0.00 0.00 0.00 58 1017.0
20260506192708 73 168 3.0 6.0 0.00 0.00 0.00 58 1016.9
20260506192208 72 179 2.0 6.0 0.00 0.00 0.00 60 1017.0
20260506191709 72 130 2.0 6.0 0.00 0.00 0.00 60 1017.1
20260506191206 71 290 4.0 6.0 0.00 0.00 0.00 60 1017.1
20260506190712 70 235 4.0 7.0 0.00 0.00 0.00 62 1017.2
20260506190707 71 266 2.0 7.0 0.00 0.00 0.00 62 1017.1
20260506185713 71 276 3.0 9.0 0.00 0.00 0.00 64 1017.3
20260506185707 70 238 4.0 9.0 0.00 0.00 0.00 60 1017.2
20260506184708 70 171 4.0 9.0 0.00 0.00 0.00 63 1017.3
20260506184207 69 199 2.0 9.0 0.00 0.00 0.00 63 1017.5
20260506183706 69 223 2.0 7.0 0.00 0.00 0.00 63 1017.6
20260506183205 70 237 4.0 7.0 0.00 0.00 0.00 61 1017.6
20260506182706 70 254 4.0 7.0 0.00 0.00 0.00 61 1017.6
20260506182205 71 220 2.0 5.0 0.00 0.00 0.00 61 1017.6
20260506181711 71 248 3.0 7.0 0.00 0.00 0.00 63 1017.6
20260506181706 71 202 3.0 7.0 0.00 0.00 0.00 62 1017.6
20260506180704 71 271 3.0 5.0 0.00 0.00 0.00 62 1017.7
20260506180206 70 183 1.0 4.0 0.00 0.00 0.00 62 1017.7
20260506175709 71 224 1.0 7.0 0.00 0.00 0.00 61 1017.7
20260506175705 71 165 2.0 7.0 0.00 0.00 0.00 62 1017.7
20260506174705 71 149 2.0 6.0 0.00 0.00 0.00 62 1017.6
20260506174204 71 182 2.0 6.0 0.00 0.00 0.00 62 1017.5
20260506173710 69 250 1.0 2.0 0.00 0.00 0.00 63 1017.7
20260506173704 70 171 1.0 4.0 0.00 0.00 0.00 63 1017.6
20260506173203 69 250 1.0 4.0 0.00 0.00 0.00 61 1017.6
20260506172203 68 250 2.0 4.0 0.00 0.00 0.00 64 1017.7
20260506171704 67 250 1.0 4.0 0.00 0.00 0.00 65 1017.7
20260506171203 67 56 1.0 5.0 0.00 0.00 0.00 67 1017.7
20260506170701 66 55 1.0 5.0 0.00 0.00 0.00 69 1017.6
20260506170201 66 227 1.0 3.0 0.00 0.00 0.00 68 1017.7
20260506165703 66 283 2.0 3.0 0.00 0.00 0.00 67 1017.7
20260506165201 66 283 1.0 3.0 0.00 0.00 0.00 67 1017.7
20260506164701 66 283 2.0 3.0 0.00 0.00 0.00 67 1017.7
20260506164202 65 206 2.0 3.0 0.00 0.00 0.00 68 1017.6
20260506163701 65 72 1.0 3.0 0.00 0.00 0.00 70 1017.7
20260506163202 64 69 1.0 3.0 0.00 0.00 0.00 71 1017.7
20260506162703 64 97 1.0 4.0 0.00 0.00 0.00 72 1017.7
20260506162201 64 140 2.0 4.0 0.00 0.00 0.00 72 1017.7
20260506161701 63 76 2.0 3.0 0.00 0.00 0.00 74 1017.6
20260506161201 63 203 1.0 2.0 0.00 0.00 0.00 73 1017.7
20260506160702 62 203 1.0 2.0 0.00 0.00 0.00 75 1017.8
20260506160159 62 203 0.0 3.0 0.00 0.00 0.00 76 1017.7
20260506155700 62 203 0.0 3.0 0.00 0.00 0.00 76 1017.8
20260506155202 61 203 0.0 3.0 0.00 0.00 0.00 77 1017.9
20260506154700 61 203 1.0 3.0 0.00 0.00 0.00 78 1018.0
20260506154200 61 252 0.0 3.0 0.00 0.00 0.00 77 1017.9
20260506153700 60 252 2.0 3.0 0.00 0.00 0.00 79 1017.9
20260506153158 60 130 1.0 2.0 0.00 0.00 0.00 79 1017.9
20260506152701 60 130 0.0 2.0 0.00 0.00 0.00 79 1017.9
20260506152200 59 130 0.0 2.0 0.00 0.00 0.00 79 1017.9
20260506151659 59 130 1.0 3.0 0.00 0.00 0.00 79 1017.8
20260506151157 59 130 1.0 3.0 0.00 0.00 0.00 79 1017.9
20260506150659 58 130 0.0 2.0 0.00 0.00 0.00 79 1017.9
20260506150158 58 130 0.0 2.0 0.00 0.00 0.00 79 1017.9
20260506145657 58 131 1.0 2.0 0.00 0.00 0.00 79 1017.8
20260506145203 57 131 1.0 2.0 0.00 0.00 0.00 80 1017.8
20260506145158 57 131 1.0 2.0 0.00 0.00 0.00 80 1017.8
20260506144158 56 131 1.0 3.0 0.00 0.00 0.00 80 1017.9
20260506143657 56 131 1.0 3.0 0.00 0.00 0.00 81 1017.8
20260506143202 55 133 0.0 2.0 0.00 0.00 0.00 82 1017.8
20260506143156 56 131 0.0 3.0 0.00 0.00 0.00 81 1017.7
20260506142658 56 131 1.0 3.0 0.00 0.00 0.00 81 1017.8
20260506141657 55 131 2.0 2.0 0.00 0.00 0.00 82 1017.8
20260506141201 55 131 0.0 2.0 0.00 0.00 0.00 83 1017.6
20260506141156 55 131 1.0 2.0 0.00 0.00 0.00 83 1017.7
20260506140810 54 203 1.0 3.0 0.00 0.00 0.00 83 1017.6
20260506140313 54 247 2.0 3.0 0.00 0.00 0.00 84 1017.6
20260506135202 53 247 1.0 3.0 0.00 0.00 0.00 84 1017.7
20260506135156 54 247 1.0 3.0 0.00 0.00 0.00 84 1017.6
20260506134812 53 247 0.0 0.0 0.00 0.00 0.00 84 1017.6
20260506133656 53 247 0.0 0.0 0.00 0.00 0.00 84 1017.6
20260506133154 53 247 0.0 0.0 0.00 0.00 0.00 84 1017.5
20260506132654 53 247 0.0 0.0 0.00 0.00 0.00 84 1017.3
20260506132157 53 247 0.0 0.0 0.00 0.00 0.00 84 1017.2
20260506131655 53 247 0.0 0.0 0.00 0.00 0.00 84 1017.1
20260506131159 53 247 0.0 0.0 0.00 0.00 0.00 84 1017.0
20260506131153 53 247 0.0 0.0 0.00 0.00 0.00 84 1017.1
20260506130154 53 247 0.0 0.0 0.00 0.00 0.00 84 1016.9
20260506125653 53 247 0.0 0.0 0.00 0.00 0.00 84 1016.9
20260506125159 53 247 0.0 0.0 0.00 0.00 0.00 84 1016.9
20260506125154 53 247 0.0 0.0 0.00 0.00 0.00 84 1017.0
20260506124153 53 247 0.0 2.0 0.00 0.00 0.00 84 1016.9
20260506123652 53 247 1.0 2.0 0.00 0.00 0.00 84 1016.9
20260506123153 53 247 0.0 2.0 0.00 0.00 0.00 84 1016.8
20260506122652 53 247 0.0 2.0 0.00 0.00 0.00 84 1016.7
20260506122153 53 247 0.0 1.0 0.00 0.00 0.00 84 1016.7
20260506121650 53 247 0.0 1.0 0.00 0.00 0.00 83 1016.7
20260506121158 54 247 0.0 2.0 0.00 0.00 0.00 84 1016.6
20260506121153 53 247 0.0 0.0 0.00 0.00 0.00 83 1016.7
20260506120152 54 247 0.0 2.0 0.00 0.00 0.00 84 1016.7
20260506115652 54 247 1.0 2.0 0.00 0.00 0.00 84 1016.6
20260506115155 54 247 0.0 0.0 0.00 0.00 0.00 84 1016.6
20260506115151 54 247 1.0 2.0 0.00 0.00 0.00 84 1016.8
20260506114152 54 247 0.0 0.0 0.00 0.00 0.00 84 1016.6
20260506113649 54 247 0.0 0.0 0.00 0.00 0.00 85 1016.6
20260506113150 54 247 0.0 0.0 0.00 0.00 0.00 85 1016.6
20260506112656 54 247 0.0 0.0 0.00 0.00 0.00 85 1016.6
20260506112652 54 247 0.0 0.0 0.00 0.00 0.00 85 1016.6
20260506111649 54 247 0.0 0.0 0.00 0.00 0.00 84 1016.6
20260506111150 54 247 0.0 0.0 0.00 0.00 0.00 84 1016.6
20260506110649 54 247 0.0 0.0 0.00 0.00 0.00 84 1016.6
20260506110150 55 247 0.0 0.0 0.00 0.00 0.00 84 1016.6
20260506105649 55 247 0.0 0.0 0.00 0.00 0.00 84 1016.6
20260506105150 55 247 0.0 0.0 0.00 0.00 0.00 84 1016.6
20260506104650 55 247 0.0 0.0 0.00 0.00 0.00 84 1016.6
20260506104150 55 247 0.0 0.0 0.00 0.00 0.00 84 1016.7
20260506103650 55 247 0.0 0.0 0.00 0.00 0.00 83 1016.6
20260506103148 55 247 0.0 0.0 0.00 0.00 0.00 83 1016.6
20260506102654 55 247 0.0 0.0 0.00 0.00 0.00 83 1016.6
20260506102649 55 247 0.0 0.0 0.00 0.00 0.00 83 1016.7
20260506101648 55 247 0.0 0.0 0.00 0.00 0.00 82 1016.6
20260506101149 55 247 0.0 0.0 0.00 0.00 0.00 82 1016.6
20260506100649 56 247 0.0 0.0 0.00 0.00 0.00 82 1016.6
20260506100147 55 247 0.0 0.0 0.00 0.00 0.00 83 1016.5
20260506095647 55 247 0.0 0.0 0.00 0.00 0.00 83 1016.6
20260506095148 55 247 0.0 0.0 0.00 0.00 0.00 83 1016.6
20260506094646 55 247 0.0 0.0 0.00 0.00 0.00 83 1016.6
20260506094148 55 247 0.0 0.0 0.00 0.00 0.00 83 1016.7
20260506093648 55 247 0.0 0.0 0.00 0.00 0.00 83 1016.6
20260506093148 55 247 0.0 0.0 0.00 0.00 0.00 83 1016.7
20260506092645 55 247 0.0 0.0 0.00 0.00 0.00 82 1016.7
20260506092152 56 247 0.0 0.0 0.00 0.00 0.00 82 1016.8
20260506092147 55 247 0.0 0.0 0.00 0.00 0.00 82 1016.7
20260506091146 56 247 0.0 0.0 0.00 0.00 0.00 82 1016.8
20260506090646 56 247 0.0 0.0 0.00 0.00 0.00 83 1016.8
20260506090148 56 247 0.0 0.0 0.00 0.00 0.00 83 1016.8
20260506085646 56 247 0.0 0.0 0.00 0.00 0.00 84 1016.8
20260506085145 56 247 0.0 0.0 0.00 0.00 0.00 84 1016.9
20260506084646 56 247 0.0 0.0 0.00 0.00 0.00 84 1016.9
20260506084145 56 247 0.0 0.0 0.00 0.00 0.00 84 1016.9
20260506083645 56 247 0.0 0.0 0.00 0.00 0.00 85 1017.0
20260506083145 56 247 0.0 0.0 0.00 0.00 0.00 85 1017.0
20260506082646 56 247 0.0 0.0 0.00 0.00 0.00 85 1017.0
20260506082146 56 247 0.0 0.0 0.00 0.00 0.00 85 1017.0
20260506081642 56 247 0.0 0.0 0.00 0.00 0.00 85 1017.1
20260506081148 56 247 0.0 0.0 0.00 0.00 0.00 85 1017.0
20260506081144 56 247 0.0 0.0 0.00 0.00 0.00 85 1017.1
20260506080144 57 247 0.0 0.0 0.00 0.00 0.00 85 1017.1
20260506073143 57 247 0.0 0.0 0.00 0.00 0.00 84 1017.2
20260506072645 57 247 0.0 0.0 0.00 0.00 0.00 84 1017.1
20260506072142 57 247 0.0 0.0 0.00 0.00 0.00 84 1017.1
20260506071642 57 247 0.0 0.0 0.00 0.00 0.00 84 1017.1
20260506071143 57 247 0.0 0.0 0.00 0.00 0.00 84 1017.1
20260506070643 57 247 0.0 0.0 0.00 0.00 0.00 84 1017.2
20260506070146 58 247 0.0 0.0 0.00 0.00 0.00 84 1017.1
20260506070141 58 247 0.0 0.0 0.00 0.00 0.00 84 1017.1
20260506062142 58 247 0.0 0.0 0.00 0.00 0.00 83 1016.7
20260506061640 58 247 0.0 0.0 0.00 0.00 0.00 83 1016.8
20260506061141 58 247 0.0 0.0 0.00 0.00 0.00 83 1016.7
20260506060640 59 247 0.0 0.0 0.00 0.00 0.00 83 1016.7
20260506060140 59 247 0.0 0.0 0.00 0.00 0.00 83 1016.7
20260506051139 59 247 0.0 0.0 0.00 0.00 0.00 79 1016.3
20260506050637 60 247 0.0 0.0 0.00 0.00 0.00 79 1016.2
20260506050138 60 247 0.0 0.0 0.00 0.00 0.00 79 1016.1
20260506044638 60 247 0.0 0.0 0.00 0.00 0.00 77 1015.9
20260506044137 60 247 0.0 0.0 0.00 0.00 0.00 77 1015.9
20260506043638 60 247 0.0 0.0 0.00 0.00 0.00 76 1015.8
20260506043136 60 247 0.0 0.0 0.00 0.00 0.00 76 1015.8
20260506042637 60 247 0.0 0.0 0.00 0.00 0.00 76 1015.9
20260506042134 60 247 0.0 0.0 0.00 0.00 0.00 76 1015.9
20260506041635 60 247 0.0 0.0 0.00 0.00 0.00 76 1015.7
20260506041142 61 247 0.0 0.0 0.00 0.00 0.00 75 1015.5
20260506041135 60 247 0.0 0.0 0.00 0.00 0.00 76 1015.6
20260506040757 61 247 0.0 0.0 0.00 0.00 0.00 75 1015.3
20260506040136 61 247 0.0 0.0 0.00 0.00 0.00 75 1015.5
20260506035759 61 247 0.0 0.0 0.00 0.00 0.00 75 1015.3
20260506034635 61 247 0.0 0.0 0.00 0.00 0.00 75 1015.3
20260506034134 61 247 0.0 0.0 0.00 0.00 0.00 75 1015.2